カタログに戻る

STARLINK-2355

運用中通信VLEO
NORAD 47895·PAYLOAD·🇺🇸 United States

打ち上げ Mar 14, 2021 から Cape Canaveral Space Force Station

Loading…

次のパス (今後24時間)

TLE

最新Source: CelesTrak SupGP

元期: Sep 14, 2026, 21:18 UTC

1 47895C 21021AM  26257.88798611 -.00007839  00000+0 -25216-3 0  2573
2 47895  53.1570 107.6730 0001390  85.7006 301.1222 15.31695098    18

AllMySatでSTARLINK-2355をリアルタイム追跡

Download on the App Store